TimeEST,TemperatureF,Dew PointF,Humidity,Sea Level PressureIn,VisibilityMPH,Wind Direction,Wind SpeedMPH,Gust SpeedMPH,PrecipitationIn,Events,Conditions,WindDirDegrees,DateUTC
12:54 AM,33.1,26.1,75,29.94,10.0,Calm,Calm,-,N/A,,Clear,0,2013-03-06 05:54:00
1:54 AM,33.1,28.0,82,29.90,10.0,Variable,3.5,-,N/A,,Clear,0,2013-03-06 06:54:00
2:54 AM,33.1,28.9,85,29.87,10.0,NE,5.8,-,N/A,,Clear,40,2013-03-06 07:54:00
3:54 AM,35.1,30.0,82,29.85,10.0,Variable,3.5,-,N/A,,Partly Cloudy,0,2013-03-06 08:54:00
4:41 AM,37.4,30.2,75,29.82,10.0,ENE,8.1,-,N/A,,Mostly Cloudy,60,2013-03-06 09:41:00
4:54 AM,37.0,30.0,76,29.82,10.0,Variable,5.8,-,N/A,,Mostly Cloudy,0,2013-03-06 09:54:00
5:14 AM,37.4,30.2,75,29.81,10.0,East,8.1,19.6,N/A,,Overcast,80,2013-03-06 10:14:00
5:54 AM,37.0,30.9,79,29.83,10.0,ENE,8.1,-,N/A,,Overcast,60,2013-03-06 10:54:00
6:45 AM,35.6,32.0,87,29.79,10.0,ENE,10.4,19.6,0.00,,Overcast,60,2013-03-06 11:45:00
7:23 AM,35.6,32.0,87,29.82,10.0,Variable,4.6,-,0.00,Rain,Light Rain,0,2013-03-06 12:23:00
7:54 AM,36.0,32.0,86,29.83,10.0,ENE,8.1,23.0,0.00,Rain,Light Rain,70,2013-03-06 12:54:00
8:54 AM,37.0,30.9,79,29.82,10.0,ENE,8.1,19.6,0.00,Rain,Light Rain,60,2013-03-06 13:54:00
9:54 AM,37.9,30.9,76,29.82,10.0,Variable,6.9,19.6,0.00,Rain,Light Rain,0,2013-03-06 14:54:00
10:54 AM,37.9,32.0,79,29.81,10.0,NE,13.8,27.6,0.01,,Overcast,50,2013-03-06 15:54:00
11:54 AM,37.0,34.0,89,29.81,10.0,NE,13.8,21.9,0.01,,Overcast,40,2013-03-06 16:54:00
12:54 PM,37.0,34.0,89,29.80,10.0,NE,10.4,28.8,0.01,Rain,Light Rain,50,2013-03-06 17:54:00
1:54 PM,37.9,34.0,86,29.80,10.0,NE,11.5,31.1,0.01,Rain,Light Rain,50,2013-03-06 18:54:00
2:28 PM,39.2,30.2,70,29.78,10.0,NE,21.9,34.5,0.00,,Overcast,40,2013-03-06 19:28:00
2:54 PM,39.9,28.9,65,29.81,10.0,NE,15.0,32.2,0.00,,Overcast,50,2013-03-06 19:54:00
3:54 PM,37.9,30.0,73,29.84,10.0,NE,12.7,26.5,0.00,Rain,Light Rain,40,2013-03-06 20:54:00
4:03 PM,37.4,30.2,75,29.83,10.0,NE,18.4,27.6,0.00,Rain,Light Rain,40,2013-03-06 21:03:00
4:11 PM,37.4,32.0,81,29.83,10.0,NE,11.5,25.3,0.01,Rain,Light Rain,40,2013-03-06 21:11:00
4:54 PM,36.0,33.1,89,29.86,10.0,NNE,16.1,29.9,0.04,Rain,Light Rain,20,2013-03-06 21:54:00
5:49 PM,35.6,32.0,87,29.86,10.0,North,18.4,27.6,0.03,,Overcast,10,2013-03-06 22:49:00
5:54 PM,36.0,30.9,82,29.88,10.0,North,20.7,31.1,0.03,,Overcast,10,2013-03-06 22:54:00
6:54 PM,37.9,28.0,68,29.90,10.0,North,21.9,32.2,N/A,,Overcast,10,2013-03-06 23:54:00
7:54 PM,37.9,28.0,68,29.91,10.0,NNE,18.4,28.8,N/A,,Overcast,20,2013-03-07 00:54:00
8:54 PM,37.0,28.0,70,29.93,10.0,NNE,15.0,26.5,0.00,,Overcast,20,2013-03-07 01:54:00
9:54 PM,35.1,30.0,82,29.95,10.0,NNE,13.8,29.9,0.00,,Overcast,30,2013-03-07 02:54:00
10:54 PM,33.1,30.0,89,29.96,9.0,North,10.4,-,0.00,Snow,Light Snow,10,2013-03-07 03:54:00
11:54 PM,36.0,26.1,67,29.95,10.0,North,17.3,23.0,0.00,,Overcast,10,2013-03-07 04:54:00